| time (UTC) | temp F | wind direction | speed MPH | gust MPH | rain 1hr in | rain 24hr in | rain mn in | humidity % | barometer mb |
| 20260506003022 | 48 | 59 | 2.0 | 8.0 | 0.03 | 0.06 | 0.06 | 1 | 1010.1 |
| 20260506001519 | 48 | 351 | 6.0 | 10.0 | 0.03 | 0.05 | 0.05 | 1 | 1009.6 |
| 20260506000014 | 49 | 17 | 6.0 | 10.0 | 0.02 | 0.04 | 0.04 | 1 | 1009.9 |
| 20260505234509 | 50 | 323 | 7.0 | 12.0 | 0.02 | 0.04 | 0.04 | 1 | 1009.6 |
| 20260505233004 | 52 | 308 | 8.0 | 14.0 | 0.01 | 0.03 | 0.03 | 19 | 1009.6 |
| 20260505231605 | 54 | 316 | 4.0 | 14.0 | 0.00 | 0.02 | 0.02 | 40 | 1009.6 |
| 20260505230101 | 57 | 5 | 6.0 | 16.0 | 0.00 | 0.02 | 0.02 | 44 | 1009.0 |
| 20260505224552 | 60 | 321 | 10.0 | 18.0 | 0.00 | 0.02 | 0.02 | 38 | 1008.3 |
| 20260505223047 | 61 | 338 | 8.0 | 25.0 | 0.00 | 0.02 | 0.02 | 40 | 1007.9 |
| 20260505221542 | 63 | 292 | 12.0 | 22.0 | 0.00 | 0.02 | 0.02 | 46 | 1007.5 |
| 20260505220037 | 64 | 311 | 13.0 | 23.0 | 0.00 | 0.02 | 0.02 | 49 | 1007.0 |
| 20260505214533 | 65 | 295 | 8.0 | 17.0 | 0.00 | 0.02 | 0.02 | 47 | 1006.6 |
| 20260505213028 | 66 | 264 | 10.0 | 17.0 | 0.00 | 0.02 | 0.02 | 51 | 1006.2 |
| 20260505211523 | 67 | 323 | 11.0 | 20.0 | 0.00 | 0.02 | 0.02 | 50 | 1006.0 |
| 20260505210019 | 66 | 297 | 10.0 | 20.0 | 0.00 | 0.02 | 0.02 | 50 | 1006.0 |
| 20260505204514 | 66 | 311 | 12.0 | 21.0 | 0.00 | 0.02 | 0.02 | 49 | 1005.9 |
| 20260505203013 | 66 | 301 | 9.0 | 17.0 | 0.00 | 0.02 | 0.02 | 50 | 1005.9 |
| 20260505201511 | 66 | 306 | 10.0 | 21.0 | 0.00 | 0.02 | 0.02 | 50 | 1005.9 |
| 20260505200002 | 67 | 299 | 10.0 | 20.0 | 0.00 | 0.02 | 0.02 | 53 | 1006.0 |
| 20260505194556 | 68 | 286 | 7.0 | 14.0 | 0.00 | 0.02 | 0.02 | 54 | 1005.7 |
| 20260505193050 | 69 | 280 | 9.0 | 19.0 | 0.00 | 0.02 | 0.02 | 57 | 1005.5 |
| 20260505191607 | 70 | 243 | 8.0 | 17.0 | 0.00 | 0.02 | 0.02 | 57 | 1005.5 |
| 20260505190042 | 70 | 282 | 9.0 | 17.0 | 0.00 | 0.02 | 0.02 | 57 | 1005.5 |
| 20260505184537 | 71 | 276 | 8.0 | 14.0 | 0.00 | 0.02 | 0.02 | 57 | 1005.2 |
| 20260505183036 | 70 | 288 | 10.0 | 17.0 | 0.00 | 0.02 | 0.02 | 57 | 1005.3 |
| 20260505181527 | 68 | 278 | 8.0 | 19.0 | 0.00 | 0.02 | 0.02 | 56 | 1005.5 |
| 20260505180041 | 67 | 207 | 6.0 | 13.0 | 0.00 | 0.02 | 0.02 | 56 | 1005.1 |
| 20260505174518 | 71 | 241 | 10.0 | 20.0 | 0.00 | 0.02 | 0.02 | 55 | 1005.0 |
| 20260505173015 | 71 | 248 | 13.0 | 29.0 | 0.00 | 0.02 | 0.02 | 56 | 1005.0 |
| 20260505171514 | 69 | 297 | 14.0 | 24.0 | 0.00 | 0.02 | 0.02 | 56 | 1005.2 |
| 20260505170012 | 69 | 259 | 9.0 | 24.0 | 0.00 | 0.02 | 0.02 | 56 | 1005.2 |
| 20260505164505 | 70 | 281 | 19.0 | 28.0 | 0.00 | 0.02 | 0.02 | 54 | 1005.0 |
| 20260505163002 | 70 | 293 | 14.0 | 24.0 | 0.00 | 0.02 | 0.02 | 55 | 1005.0 |
| 20260505161557 | 70 | 261 | 13.0 | 20.0 | 0.00 | 0.02 | 0.02 | 55 | 1004.6 |
| 20260505153044 | 70 | 249 | 9.0 | 15.0 | 0.00 | 0.02 | 0.02 | 57 | 1004.1 |
| 20260505151539 | 69 | 247 | 9.0 | 18.0 | 0.00 | 0.02 | 0.02 | 57 | 1004.6 |
| 20260505124559 | 66 | 257 | 5.0 | 16.0 | 0.00 | 0.02 | 0.02 | 55 | 1004.1 |
| 20260505123059 | 66 | 262 | 6.0 | 16.0 | 0.00 | 0.02 | 0.02 | 54 | 1003.9 |
| 20260505121553 | 65 | 200 | 6.0 | 14.0 | 0.00 | 0.02 | 0.02 | 51 | 1004.1 |
| 20260505120053 | 64 | 226 | 4.0 | 15.0 | 0.00 | 0.02 | 0.02 | 49 | 1004.2 |
| 20260505114555 | 63 | 281 | 7.0 | 15.0 | 0.00 | 0.02 | 0.02 | 49 | 1004.1 |
| 20260505113053 | 63 | 252 | 5.0 | 12.0 | 0.01 | 0.02 | 0.02 | 48 | 1004.1 |
| 20260505111549 | 63 | 190 | 6.0 | 16.0 | 0.01 | 0.02 | 0.02 | 45 | 1004.1 |
| 20260505101549 | 61 | 242 | 7.0 | 12.0 | 0.00 | 0.01 | 0.01 | 38 | 1003.5 |
| 20260505100052 | 61 | 147 | 5.0 | 11.0 | 0.00 | 0.01 | 0.01 | 40 | 1003.5 |
| 20260505094529 | 61 | 203 | 5.0 | 14.0 | 0.00 | 0.01 | 0.01 | 38 | 1003.3 |
| 20260505093022 | 61 | 281 | 6.0 | 15.0 | 0.00 | 0.01 | 0.01 | 32 | 1003.4 |
| 20260505091515 | 60 | 194 | 6.0 | 12.0 | 0.00 | 0.01 | 0.01 | 13 | 1003.4 |
| 20260505090009 | 59 | 203 | 4.0 | 9.0 | 0.00 | 0.01 | 0.01 | 1 | 1003.8 |
| 20260505084505 | 58 | 229 | 1.0 | 5.0 | 0.00 | 0.01 | 0.01 | 1 | 1003.9 |
| 20260505083105 | 58 | 242 | 1.0 | 4.0 | 0.00 | 0.01 | 0.01 | 1 | 1003.9 |
| 20260505081618 | 59 | 184 | 0.0 | 7.0 | 0.00 | 0.01 | 0.01 | 1 | 1003.8 |
| 20260505080059 | 59 | 199 | 3.0 | 6.0 | 0.00 | 0.01 | 0.01 | 1 | 1003.8 |
| 20260505074546 | 58 | 195 | 1.0 | 4.0 | 0.00 | 0.01 | 0.01 | 1 | 1004.0 |
| 20260505073042 | 59 | 159 | 2.0 | 4.0 | 0.00 | 0.01 | 0.01 | 1 | 1004.3 |
| 20260505071548 | 60 | 217 | 2.0 | 9.0 | 0.00 | 0.01 | 0.01 | 9 | 1004.4 |
| 20260505070034 | 60 | 214 | 4.0 | 10.0 | 0.00 | 0.01 | 0.01 | 19 | 1004.6 |
| 20260505064528 | 60 | 175 | 4.0 | 11.0 | 0.00 | 0.01 | 0.01 | 19 | 1004.4 |
| 20260505063024 | 60 | 247 | 3.0 | 10.0 | 0.00 | 0.01 | 0.01 | 4 | 1004.2 |
| 20260505061525 | 59 | 214 | 6.0 | 12.0 | 0.00 | 0.01 | 0.01 | 1 | 1004.3 |
| 20260505060015 | 58 | 232 | 2.0 | 7.0 | 0.00 | 0.01 | 0.01 | 1 | 1004.5 |
| 20260505054511 | 58 | 169 | 1.0 | 6.0 | 0.00 | 0.01 | 0.01 | 1 | 1004.4 |
| 20260505053012 | 59 | 246 | 3.0 | 8.0 | 0.00 | 0.01 | 0.01 | 1 | 1004.4 |
| 20260505051505 | 60 | 193 | 3.0 | 7.0 | 0.01 | 0.01 | 0.01 | 2 | 1004.5 |
| 20260505041547 | 64 | 252 | 6.0 | 11.0 | 0.00 | 0.00 | 0.00 | 57 | 1004.6 |
| 20260505040044 | 63 | 200 | 3.0 | 9.0 | 0.00 | 0.00 | 0.00 | 56 | 1004.6 |
| 20260505034547 | 62 | 236 | 3.0 | 8.0 | 0.00 | 0.00 | 0.00 | 56 | 1004.6 |
| 20260505033043 | 62 | 272 | 0.0 | 2.0 | 0.00 | 0.00 | 0.00 | 56 | 1004.8 |
| 20260505031548 | 63 | 225 | 0.0 | 3.0 | 0.00 | 0.00 | 0.00 | 53 | 1004.6 |
| 20260505030043 | 62 | 175 | 0.0 | 4.0 | 0.00 | 0.00 | 0.00 | 53 | 1004.6 |
| 20260505024541 | 62 | 169 | 0.0 | 3.0 | 0.00 | 0.00 | 0.00 | 52 | 1004.4 |
| 20260505023042 | 62 | 208 | 0.0 | 2.0 | 0.00 | 0.00 | 0.00 | 50 | 1004.5 |
| 20260505021541 | 64 | 205 | 0.0 | 5.0 | 0.00 | 0.00 | 0.00 | 45 | 1004.7 |
| 20260505020040 | 65 | 219 | 1.0 | 7.0 | 0.00 | 0.00 | 0.00 | 44 | 1004.8 |
| 20260505014539 | 65 | 219 | 2.0 | 4.0 | 0.00 | 0.00 | 0.00 | 42 | 1004.7 |
| 20260505013038 | 66 | 250 | 2.0 | 6.0 | 0.00 | 0.00 | 0.00 | 40 | 1004.6 |
| 20260505011541 | 66 | 204 | 2.0 | 6.0 | 0.00 | 0.00 | 0.00 | 41 | 1004.5 |
| 20260505010101 | 66 | 231 | 2.0 | 4.0 | 0.00 | 0.00 | 0.00 | 40 | 1004.4 |
| 20260505004535 | 66 | 215 | 0.0 | 4.0 | 0.00 | 0.00 | 0.00 | 40 | 1004.3 |